{"data":{"norad_id":63587,"intl_designator":"2025-076U","name":"STARLINK-33830","alt_names":[],"object_type":"PAYLOAD","status":"ACTIVE","operator":null,"country":"US","launch_date":"2025-04-14","launch_site_code":"AFETR","launch_vehicle":null,"mission":null,"orbit_class":"UNKNOWN","rcs_meters":null,"size_class":null,"mass_kg":null,"dimensions":null,"purposes":["comms"],"wikipedia_slug":null,"has_3d_model":false,"image_url":null,"decayed_at":null,"tle_current":{"epoch":"2026-05-25T00:23:46.260096Z","epoch_age_seconds":76854,"freshness":"FRESH","line1":"1 63587U 25076U   26145.01650764  .00012511  00000+0  46321-3 0  9994","line2":"2 63587  43.0032 250.6382 0003103 273.1452  86.9045 15.27592638 63504","mean_motion":15.27592638,"eccentricity":0.0003103,"inclination_deg":43.0032,"raan_deg":250.6382,"arg_perigee_deg":273.1452,"mean_anomaly_deg":86.9045,"bstar":0.00046321,"rev_number":6350,"period_min":94.265968830887,"perigee_km":480.88223927897,"apogee_km":485.14026788514,"semimajor_km":6861.1482535821,"source":"CELESTRAK","updated_at":"2026-05-25T13:38:20.049476Z"}}}